Location: Rottenacker
(48.2350°N, 9.6886°E)
Time: 10:25:17
(UTC+02:00)

OTV 5 (USA 277) - Pass Details

Date: 27 April 2018
Orbit: 308 x 326 km, 54.5° (Epoch: 06 May)

Event Time Altitude Azimuth Distance (km) Brightness Sun altitude
Rises 22:17:46 0° 299° (WNW) 2,065 ? -15.9°
Reaches altitude 10° 22:19:55 10° 313° (NW) 1,228 ? -16.2°
Maximum altitude 22:22:18 26° 14° (NNE) 667 ? -16.4°
Enters shadow 22:23:23 20° 53° (NE) 813 ? -16.6°
